Torna al catalogo

USA 57

AttivoMilitarePO
NORAD 20561·PAYLOAD·🇺🇸 United States

Lanciato Apr 11, 1990 da Vandenberg Space Force Base

Loading…

Prossimi Passaggi (prossime 24 ore)

TLE

AggiornatoSource: Space-Track

Epoca: Sep 14, 2026, 10:51 UTC

1 20561U 90031B   26257.45260793  .00000387  00000-0  54956-4 0  9996
2 20561  89.8454 263.1398 0068930 100.8487 260.0501 14.73314914128327

Traccia USA 57 in tempo reale con AllMySat

Download on the App Store